ギブス彗星

331P/Gibbs (2005)

English version
Home page
Updated on February 27, 2016

---------------------------------------------------------------------

・ プロフィール

・ 軌道要素

Epoch 2005 Jan. 30.0 TT = JDT 2453400.5
T 2005 Jan. 10.01552 TT                                 MPCW
q   2.8637047            (2000.0)            P               Q
n   0.18933448     Peri.  176.93533     +0.82775306     -0.55170455
a   3.0036518      Node   217.14847     +0.51112597     +0.81656966
e   0.0465923      Incl.    9.74453     +0.23146301     +0.16981188
P   5.21
From 106 observations 2004 Aug. 26-2013 May 12, mean residual 0".6.

・ 光度変化

        m1 = 15.0 + 5 logΔ + 10.0 log r

---------------------------------------------------------------------

軌道要素はM.P.E.C. 2015-K139に掲載されたものです。
光度グラフはComet for Windowsで作成したものです。

---------------------------------------------------------------------

Copyright(C) Seiichi Yoshida (comet@aerith.net). All rights reserved.